CJT6498 CYVR-CYMX

Flight info

Callsign CJT6498
Flight time N/A
Altitude 35000
Route ALNOD DCT IKNIX DCT VESDO DCT GORAK DCT LIVBI DCT VESRU/N0462F370 DCT CHICA DCT ULAMO DCT BEMOG Q919 VIDGO Q911 PIGNA
Aircraft B752/M-SDE2E3FGHIJ3J4J7RWXY/LB1

Departure

Time 2026-05-01 12:25
Airport Vancouver International Airport (CYVR)

Arrival

Time N/A
Airport Montreal Mirabel International Airport (CYMX)
Time Latitude Longitude Altitude Speed Heading
2026-05-01 12:09 49.18919 -123.17475 25 ft 0 kts
2026-05-01 12:11 49.18914 -123.17474 25 ft 1 kts 325°
2026-05-01 12:11 49.18906 -123.17460 25 ft 2 kts 303°
2026-05-01 12:12 49.18900 -123.17437 25 ft 2 kts 280°
2026-05-01 12:12 49.18898 -123.17413 25 ft 0 kts 277°
2026-05-01 12:16 49.18898 -123.17419 25 ft 1 kts 271°
2026-05-01 12:16 49.18894 -123.17445 25 ft 2 kts 244°
2026-05-01 12:17 49.18877 -123.17468 25 ft 3 kts 210°
2026-05-01 12:17 49.18854 -123.17496 25 ft 4 kts 235°
2026-05-01 12:17 49.18852 -123.17564 25 ft 8 kts 278°
2026-05-01 12:17 49.18863 -123.17667 25 ft 11 kts 280°
2026-05-01 12:18 49.18879 -123.17803 25 ft 14 kts 280°
2026-05-01 12:18 49.18898 -123.17971 25 ft 17 kts 280°
2026-05-01 12:18 49.18921 -123.18169 25 ft 20 kts 281°
2026-05-01 12:18 49.18944 -123.18375 25 ft 12 kts 280°
2026-05-01 12:19 49.18988 -123.18489 25 ft 14 kts 321°
2026-05-01 12:19 49.19076 -123.18593 25 ft 17 kts 322°
2026-05-01 12:19 49.19180 -123.18716 25 ft 20 kts 322°
2026-05-01 12:19 49.19299 -123.18856 25 ft 21 kts 322°
2026-05-01 12:20 49.19349 -123.18922 25 ft 9 kts 311°
2026-05-01 12:20 49.19356 -123.19029 25 ft 12 kts 259°
2026-05-01 12:20 49.19339 -123.19173 25 ft 15 kts 261°
2026-05-01 12:20 49.19320 -123.19349 25 ft 18 kts 260°
2026-05-01 12:21 49.19293 -123.19555 25 ft 21 kts 259°
2026-05-01 12:21 49.19265 -123.19788 25 ft 23 kts 259°
2026-05-01 12:21 49.19232 -123.20036 25 ft 24 kts 258°
2026-05-01 12:21 49.19197 -123.20299 25 ft 25 kts 259°
2026-05-01 12:22 49.19176 -123.20524 25 ft 20 kts 272°
2026-05-01 12:22 49.19181 -123.20705 25 ft 9 kts 268°
2026-05-01 12:22 49.19143 -123.20790 25 ft 10 kts 210°
2026-05-01 12:22 49.19120 -123.20809 25 ft 0 kts 206°
2026-05-01 12:23 49.19108 -123.20818 25 ft 5 kts 205°
2026-05-01 12:23 49.19050 -123.20847 25 ft 11 kts 185°
2026-05-01 12:24 49.19004 -123.20727 25 ft 21 kts 100°
2026-05-01 12:24 49.18947 -123.20229 25 ft 78 kts 99°
2026-05-01 12:24 49.18815 -123.19081 25 ft 138 kts 99°
2026-05-01 12:24 49.18609 -123.17377 52 ft 188 kts 100°
2026-05-01 12:25 49.18361 -123.15388 795 ft 189 kts 100°
2026-05-01 12:25 49.17923 -123.11586 2341 ft 193 kts 98°
2026-05-01 12:25 49.17711 -123.09615 2864 ft 187 kts 99°
2026-05-01 12:26 49.17489 -123.07615 3098 ft 195 kts 99°
2026-05-01 12:26 49.16993 -123.03091 3369 ft 231 kts 99°
2026-05-01 12:26 49.16729 -123.00667 3776 ft 237 kts 99°
2026-05-01 12:27 49.16448 -122.98076 3901 ft 257 kts 99°
2026-05-01 12:27 49.16012 -122.92616 4971 ft 260 kts 96°
2026-05-01 12:28 49.15580 -122.87115 6012 ft 265 kts 97°
2026-05-01 12:28 49.15356 -122.84321 6520 ft 267 kts 97°
2026-05-01 12:28 49.14896 -122.78631 7538 ft 272 kts 97°
2026-05-01 12:29 49.14664 -122.75784 8037 ft 274 kts 97°
2026-05-01 12:29 49.14426 -122.72884 8540 ft 277 kts 97°
2026-05-01 12:29 49.13943 -122.67002 9542 ft 281 kts 97°
2026-05-01 12:30 49.13458 -122.61118 10746 ft 277 kts 98°
2026-05-01 12:30 49.13208 -122.58137 10806 ft 296 kts 98°
2026-05-01 12:30 49.12937 -122.54911 10826 ft 316 kts 98°
2026-05-01 12:31 49.12646 -122.51447 10996 ft 331 kts 98°
2026-05-01 12:31 49.12354 -122.47958 11592 ft 331 kts 98°
2026-05-01 12:31 49.12060 -122.44476 12013 ft 336 kts 98°
2026-05-01 12:31 49.11762 -122.40946 12514 ft 338 kts 98°
2026-05-01 12:32 49.11456 -122.37341 12985 ft 341 kts 98°
2026-05-01 12:32 49.10860 -122.30369 13900 ft 345 kts 99°
2026-05-01 12:32 49.10547 -122.26734 14335 ft 348 kts 99°
2026-05-01 12:33 49.10233 -122.23084 14780 ft 350 kts 99°
2026-05-01 12:33 49.09913 -122.19390 15201 ft 352 kts 99°
2026-05-01 12:33 49.09589 -122.15661 15618 ft 354 kts 99°
2026-05-01 12:33 49.09266 -122.11954 15996 ft 357 kts 99°
2026-05-01 12:34 49.08934 -122.08170 16363 ft 360 kts 99°
2026-05-01 12:34 49.08601 -122.04383 16723 ft 363 kts 99°
2026-05-01 12:34 49.08262 -122.00537 17074 ft 366 kts 99°
2026-05-01 12:34 49.07919 -121.96673 17424 ft 368 kts 99°
2026-05-01 12:35 49.07572 -121.92769 17769 ft 371 kts 99°
2026-05-01 12:35 49.07224 -121.88867 18117 ft 374 kts 99°
2026-05-01 12:35 49.06875 -121.84978 18472 ft 376 kts 99°
2026-05-01 12:35 49.06515 -121.80981 18821 ft 378 kts 99°
2026-05-01 12:36 49.06157 -121.77009 19167 ft 380 kts 99°
2026-05-01 12:36 49.05795 -121.73025 19505 ft 382 kts 99°
2026-05-01 12:36 49.05426 -121.68978 19845 ft 385 kts 99°
2026-05-01 12:36 49.05239 -121.64923 20163 ft 389 kts 88°
2026-05-01 12:37 49.05553 -121.60799 20475 ft 392 kts 83°
2026-05-01 12:37 49.05941 -121.56633 20797 ft 395 kts 83°
2026-05-01 12:37 49.06319 -121.52473 21109 ft 397 kts 83°
2026-05-01 12:37 49.06698 -121.48324 21417 ft 400 kts 83°
2026-05-01 12:38 49.07084 -121.44085 21724 ft 402 kts 83°
2026-05-01 12:38 49.07469 -121.39844 22024 ft 404 kts 83°
2026-05-01 12:38 49.07854 -121.35580 22317 ft 407 kts 83°
2026-05-01 12:38 49.08240 -121.31298 22609 ft 409 kts 84°
2026-05-01 12:39 49.08623 -121.27025 22885 ft 412 kts 84°
2026-05-01 12:39 49.09009 -121.22701 23171 ft 414 kts 84°
2026-05-01 12:39 49.09398 -121.18328 23448 ft 416 kts 84°
2026-05-01 12:39 49.09785 -121.13946 23714 ft 419 kts 83°
2026-05-01 12:40 49.10174 -121.09532 23987 ft 421 kts 83°
2026-05-01 12:40 49.10561 -121.05112 24252 ft 424 kts 83°
2026-05-01 12:40 49.10956 -121.00590 24524 ft 426 kts 83°
2026-05-01 12:40 49.11344 -120.96122 24789 ft 428 kts 83°
2026-05-01 12:41 49.11733 -120.91638 25061 ft 430 kts 83°
2026-05-01 12:41 49.12123 -120.87108 25337 ft 431 kts 83°
2026-05-01 12:41 49.12515 -120.82537 25607 ft 433 kts 83°
2026-05-01 12:41 49.12901 -120.78014 25875 ft 435 kts 83°
2026-05-01 12:42 49.13290 -120.73431 26139 ft 436 kts 83°
2026-05-01 12:42 49.13681 -120.68808 26400 ft 438 kts 83°
2026-05-01 12:42 49.14071 -120.64166 26643 ft 440 kts 83°
2026-05-01 12:42 49.14458 -120.59541 26891 ft 442 kts 83°
2026-05-01 12:43 49.14848 -120.54855 27133 ft 444 kts 83°
2026-05-01 12:43 49.15232 -120.50221 27373 ft 446 kts 83°
2026-05-01 12:43 49.15621 -120.45495 27612 ft 448 kts 83°
2026-05-01 12:43 49.16011 -120.40740 27849 ft 450 kts 83°
2026-05-01 12:44 49.16396 -120.36027 28081 ft 452 kts 83°
2026-05-01 12:44 49.16782 -120.31268 28309 ft 453 kts 83°
2026-05-01 12:44 49.17557 -120.21637 28755 ft 457 kts 83°
2026-05-01 12:45 49.18327 -120.11968 29202 ft 460 kts 83°
2026-05-01 12:45 49.18711 -120.07103 29421 ft 462 kts 83°
2026-05-01 12:45 49.19093 -120.02245 29636 ft 463 kts 83°
2026-05-01 12:46 49.19473 -119.97383 29847 ft 465 kts 83°
2026-05-01 12:46 49.19859 -119.92420 30052 ft 467 kts 83°
2026-05-01 12:46 49.20237 -119.87528 30254 ft 469 kts 83°
2026-05-01 12:46 49.20620 -119.82533 30458 ft 470 kts 83°
2026-05-01 12:47 49.20999 -119.77573 30658 ft 472 kts 83°
2026-05-01 12:47 49.21377 -119.72593 30858 ft 474 kts 83°
2026-05-01 12:47 49.21757 -119.67560 31057 ft 475 kts 83°
2026-05-01 12:47 49.22132 -119.62573 31253 ft 477 kts 83°
2026-05-01 12:48 49.22509 -119.57516 31449 ft 479 kts 83°
2026-05-01 12:48 49.22883 -119.52470 31644 ft 480 kts 83°
2026-05-01 12:48 49.23256 -119.47411 31837 ft 482 kts 83°
2026-05-01 12:48 49.23634 -119.42255 32033 ft 484 kts 83°
2026-05-01 12:49 49.24007 -119.37135 32226 ft 485 kts 83°
2026-05-01 12:49 49.24373 -119.32076 32719 ft 479 kts 84°
2026-05-01 12:49 49.24736 -119.27026 33124 ft 476 kts 84°
2026-05-01 12:49 49.25142 -119.21953 33290 ft 478 kts 80°
2026-05-01 12:50 49.25779 -119.16971 33573 ft 477 kts 78°
2026-05-01 12:50 49.26426 -119.12014 33835 ft 477 kts 78°
2026-05-01 12:50 49.27066 -119.07009 34092 ft 477 kts 78°
2026-05-01 12:50 49.27693 -119.02062 34365 ft 477 kts 78°
2026-05-01 12:51 49.28319 -118.97089 34687 ft 475 kts 78°
2026-05-01 12:51 49.28943 -118.92120 35015 ft 474 kts 78°
2026-05-01 12:52 49.30789 -118.77264 35101 ft 469 kts 78°
2026-05-01 12:52 49.32596 -118.62553 35135 ft 471 kts 79°
2026-05-01 12:53 49.34400 -118.47704 35161 ft 477 kts 78°
2026-05-01 12:54 49.35620 -118.37567 35161 ft 487 kts 78°
2026-05-01 12:54 49.37468 -118.22054 35154 ft 495 kts 79°
2026-05-01 12:55 49.39302 -118.06479 35155 ft 495 kts 79°
2026-05-01 12:56 49.40506 -117.96142 35155 ft 495 kts 79°
2026-05-01 12:56 49.41707 -117.85755 35155 ft 495 kts 79°
2026-05-01 12:57 49.42900 -117.75339 35156 ft 495 kts 79°
2026-05-01 12:57 49.44663 -117.59801 35157 ft 495 kts 79°
2026-05-01 12:58 49.45832 -117.49389 35166 ft 495 kts 79°
2026-05-01 12:59 49.47567 -117.33765 35182 ft 495 kts 80°
2026-05-01 12:59 49.49284 -117.18105 35181 ft 495 kts 80°
2026-05-01 13:00 49.50977 -117.02460 35178 ft 494 kts 80°
2026-05-01 13:01 49.52643 -116.86858 35169 ft 490 kts 80°
2026-05-01 13:02 49.54274 -116.71378 35160 ft 488 kts 80°
2026-05-01 13:07 49.65602 -115.57569 35156 ft 489 kts 81°
2026-05-01 13:08 49.66575 -115.47217 35157 ft 489 kts 81°
2026-05-01 13:08 49.67540 -115.36847 35157 ft 489 kts 81°
2026-05-01 13:09 49.68498 -115.26450 35154 ft 489 kts 82°
2026-05-01 13:09 49.69446 -115.16042 35154 ft 489 kts 82°
2026-05-01 13:10 49.70379 -115.05702 35155 ft 487 kts 82°
2026-05-01 13:10 49.71304 -114.95344 35155 ft 486 kts 82°
2026-05-01 13:11 49.72219 -114.84990 35156 ft 486 kts 82°
2026-05-01 13:11 49.73273 -114.72931 35156 ft 486 kts 82°
2026-05-01 13:12 49.74020 -114.64290 35145 ft 487 kts 82°
2026-05-01 13:12 49.74904 -114.53956 35122 ft 487 kts 82°
2026-05-01 13:13 49.75790 -114.43501 35103 ft 488 kts 82°
2026-05-01 13:13 49.76659 -114.33122 35101 ft 488 kts 83°
2026-05-01 13:14 49.77522 -114.22703 35100 ft 488 kts 83°
2026-05-01 13:14 49.78376 -114.12274 35101 ft 488 kts 83°
2026-05-01 13:15 49.79214 -114.01922 35101 ft 488 kts 83°
2026-05-01 13:15 49.80052 -113.91459 35101 ft 488 kts 83°
2026-05-01 13:16 49.80879 -113.81010 35102 ft 488 kts 83°
2026-05-01 13:16 49.81693 -113.70595 35102 ft 488 kts 83°
2026-05-01 13:17 49.83292 -113.49779 35102 ft 488 kts 83°
2026-05-01 13:18 49.84466 -113.34172 35086 ft 487 kts 83°
2026-05-01 13:18 49.85240 -113.23731 35073 ft 486 kts 83°
2026-05-01 13:19 49.85999 -113.13355 35074 ft 487 kts 83°
2026-05-01 13:20 49.87121 -112.97765 35074 ft 486 kts 83°
2026-05-01 13:20 49.87855 -112.87382 35074 ft 483 kts 83°
2026-05-01 13:21 49.88929 -112.71992 35074 ft 480 kts 83°
2026-05-01 13:21 49.89636 -112.61688 35074 ft 480 kts 83°
2026-05-01 13:22 49.90331 -112.51425 35074 ft 480 kts 83°
2026-05-01 13:22 49.91022 -112.41085 35074 ft 480 kts 83°
2026-05-01 13:23 49.91701 -112.30769 35072 ft 480 kts 83°
2026-05-01 13:23 49.92368 -112.20509 35073 ft 480 kts 83°
2026-05-01 13:24 49.93029 -112.10190 35073 ft 480 kts 83°
2026-05-01 13:25 49.94003 -111.94720 35073 ft 480 kts 83°
2026-05-01 13:25 49.94639 -111.84422 35073 ft 479 kts 83°
2026-05-01 13:26 49.95271 -111.74060 35066 ft 480 kts 83°
2026-05-01 13:26 49.95888 -111.63773 35054 ft 480 kts 83°
2026-05-01 13:27 49.96494 -111.53509 35047 ft 480 kts 83°
2026-05-01 13:27 49.97390 -111.38055 35047 ft 480 kts 83°
2026-05-01 13:28 49.98059 -111.22578 35046 ft 480 kts 86°
2026-05-01 13:29 49.98764 -111.01873 35046 ft 481 kts 85°
2026-05-01 13:31 49.99733 -110.71097 35045 ft 475 kts 84°
2026-05-01 13:32 50.00473 -110.45594 35045 ft 474 kts 84°
2026-05-01 13:33 50.01158 -110.19994 35044 ft 475 kts 85°
2026-05-01 13:34 50.01667 -109.99503 35044 ft 475 kts 85°
2026-05-01 13:35 50.02023 -109.84188 35044 ft 475 kts 85°
2026-05-01 13:36 50.02359 -109.68817 35044 ft 475 kts 85°
2026-05-01 13:36 50.02677 -109.53401 35045 ft 475 kts 85°
2026-05-01 13:37 50.02877 -109.43153 35045 ft 475 kts 85°
2026-05-01 13:37 50.03068 -109.32905 35044 ft 475 kts 86°
2026-05-01 13:38 50.03337 -109.17567 35044 ft 475 kts 86°
2026-05-01 13:39 50.03503 -109.07298 35046 ft 472 kts 85°
2026-05-01 13:39 50.03660 -108.97105 35048 ft 467 kts 84°
2026-05-01 13:40 50.03809 -108.87067 35054 ft 466 kts 84°
2026-05-01 13:40 50.03949 -108.76963 35062 ft 467 kts 84°
2026-05-01 13:41 50.04079 -108.66933 35069 ft 466 kts 84°
2026-05-01 13:41 50.04201 -108.56867 35069 ft 466 kts 84°
2026-05-01 13:42 50.04314 -108.46799 35069 ft 466 kts 84°
2026-05-01 13:42 50.04418 -108.36712 35069 ft 467 kts 84°
2026-05-01 13:43 50.04514 -108.26585 35069 ft 467 kts 85°
2026-05-01 13:43 50.04601 -108.16497 35069 ft 467 kts 85°
2026-05-01 13:44 50.04679 -108.06435 35069 ft 467 kts 85°
2026-05-01 13:44 50.04748 -107.96359 35068 ft 466 kts 85°
2026-05-01 13:45 50.04808 -107.86276 35069 ft 466 kts 85°
2026-05-01 13:45 50.04860 -107.76197 35069 ft 466 kts 85°
2026-05-01 13:46 50.04910 -107.64399 35069 ft 466 kts 85°
2026-05-01 13:46 50.04937 -107.56020 35069 ft 466 kts 85°
2026-05-01 13:47 50.04963 -107.45909 35069 ft 466 kts 85°
2026-05-01 13:47 50.04980 -107.35859 35068 ft 466 kts 85°
2026-05-01 13:48 50.04988 -107.25771 35069 ft 467 kts 85°
2026-05-01 13:48 50.04988 -107.15645 35079 ft 467 kts 85°
2026-05-01 13:49 50.04978 -107.05575 35091 ft 467 kts 85°
2026-05-01 13:49 50.04958 -106.95443 35095 ft 464 kts 85°
2026-05-01 13:50 50.04929 -106.85524 35093 ft 458 kts 84°
2026-05-01 13:50 50.04894 -106.75692 35091 ft 452 kts 83°
2026-05-01 13:51 50.04855 -106.65857 35093 ft 454 kts 83°
2026-05-01 13:51 50.04804 -106.56001 35092 ft 454 kts 83°
2026-05-01 13:52 50.04745 -106.46200 35092 ft 454 kts 83°
2026-05-01 13:52 50.04678 -106.36398 35092 ft 454 kts 83°
2026-05-01 13:53 50.04602 -106.26556 35094 ft 455 kts 84°
2026-05-01 13:53 50.04473 -106.11826 35094 ft 456 kts 84°
2026-05-01 13:54 50.04376 -106.01942 35093 ft 457 kts 84°
2026-05-01 13:54 50.04269 -105.92022 35093 ft 456 kts 84°
2026-05-01 13:55 50.04155 -105.82179 35093 ft 455 kts 84°
2026-05-01 13:55 50.04033 -105.72330 35092 ft 456 kts 84°
2026-05-01 13:56 50.03903 -105.62512 35092 ft 456 kts 84°
2026-05-01 13:56 50.03764 -105.52625 35092 ft 456 kts 84°
2026-05-01 13:57 50.03618 -105.42816 35092 ft 456 kts 84°
2026-05-01 13:57 50.03462 -105.32935 35093 ft 456 kts 85°
2026-05-01 13:58 50.03298 -105.23099 35094 ft 456 kts 85°
2026-05-01 13:58 50.03126 -105.13233 35093 ft 455 kts 85°
2026-05-01 13:59 50.02944 -105.03420 35093 ft 454 kts 84°
2026-05-01 13:59 50.02722 -104.91966 35092 ft 452 kts 83°
2026-05-01 14:00 50.02560 -104.83888 35090 ft 450 kts 83°
2026-05-01 14:00 50.02325 -104.72505 35091 ft 451 kts 83°
2026-05-01 14:01 50.02148 -104.64394 35090 ft 451 kts 83°
2026-05-01 14:01 50.01894 -104.53100 35090 ft 451 kts 83°
2026-05-01 14:02 50.01702 -104.44945 35090 ft 451 kts 83°
2026-05-01 14:02 50.01468 -104.35261 35094 ft 451 kts 83°
2026-05-01 14:03 50.01224 -104.25467 35119 ft 452 kts 84°
2026-05-01 14:03 50.00927 -104.14068 35144 ft 452 kts 84°
2026-05-01 14:04 50.00711 -104.05976 35146 ft 452 kts 84°
2026-05-01 14:04 50.00756 -103.96307 35146 ft 447 kts 80°
2026-05-01 14:05 50.00880 -103.86626 35144 ft 445 kts 80°
2026-05-01 14:05 50.01009 -103.75378 35145 ft 446 kts 80°
2026-05-01 14:06 50.01107 -103.65765 35145 ft 446 kts 80°
2026-05-01 14:06 50.01184 -103.57700 35144 ft 446 kts 80°
2026-05-01 14:07 50.01267 -103.48077 35144 ft 446 kts 80°
2026-05-01 14:08 50.01379 -103.33503 35145 ft 450 kts 81°
2026-05-01 14:08 50.01453 -103.22165 35146 ft 451 kts 81°
2026-05-01 14:09 50.01505 -103.12444 35145 ft 449 kts 81°
2026-05-01 14:09 50.01541 -103.04384 35144 ft 444 kts 80°
2026-05-01 14:10 50.01586 -102.93249 35143 ft 439 kts 79°
2026-05-01 14:10 50.01619 -102.83798 35144 ft 440 kts 79°
2026-05-01 14:11 50.01642 -102.74277 35142 ft 440 kts 79°
2026-05-01 14:11 50.01660 -102.60029 35142 ft 440 kts 79°
2026-05-01 14:12 50.01663 -102.52081 35142 ft 441 kts 79°
2026-05-01 14:12 50.01659 -102.42571 35141 ft 441 kts 79°
2026-05-01 14:13 50.01648 -102.33047 35143 ft 440 kts 80°
2026-05-01 14:13 50.01629 -102.23487 35144 ft 441 kts 80°
2026-05-01 14:14 50.01601 -102.14010 35144 ft 440 kts 80°
2026-05-01 14:14 50.01560 -102.02937 35144 ft 440 kts 80°
2026-05-01 14:15 50.01516 -101.93487 35143 ft 439 kts 80°
2026-05-01 14:15 50.01465 -101.84003 35143 ft 440 kts 80°
2026-05-01 14:16 50.01415 -101.76049 35143 ft 440 kts 80°
2026-05-01 14:16 50.01350 -101.66609 35142 ft 439 kts 80°
2026-05-01 14:17 50.01263 -101.55523 35142 ft 438 kts 80°
2026-05-01 14:17 50.01180 -101.46044 35141 ft 438 kts 80°
2026-05-01 14:18 50.01090 -101.36572 35141 ft 438 kts 80°
2026-05-01 14:18 50.01010 -101.28717 35146 ft 440 kts 81°
2026-05-01 14:19 50.00887 -101.17626 35144 ft 440 kts 81°
2026-05-01 14:19 50.00774 -101.08141 35144 ft 440 kts 81°
2026-05-01 14:20 50.00608 -100.95428 35142 ft 437 kts 81°
2026-05-01 14:21 50.00457 -100.84503 35144 ft 438 kts 81°
2026-05-01 14:21 50.00317 -100.75032 35142 ft 438 kts 81°
2026-05-01 14:22 50.00118 -100.62442 35142 ft 438 kts 81°
2026-05-01 14:22 49.99933 -100.51414 35142 ft 439 kts 81°
2026-05-01 14:23 49.99765 -100.41918 35141 ft 438 kts 81°
2026-05-01 14:23 49.99591 -100.32465 35144 ft 439 kts 81°
2026-05-01 14:24 49.99410 -100.23028 35145 ft 440 kts 81°
2026-05-01 14:24 49.99218 -100.13501 35144 ft 440 kts 81°
2026-05-01 14:25 49.99020 -100.04054 35144 ft 440 kts 81°
2026-05-01 14:25 49.98814 -99.94563 35144 ft 440 kts 81°
2026-05-01 14:26 49.98490 -99.80347 35143 ft 440 kts 81°
2026-05-01 14:27 49.98303 -99.72442 35143 ft 441 kts 81°
2026-05-01 14:27 49.98030 -99.61331 35142 ft 441 kts 81°
2026-05-01 14:28 49.97665 -99.47095 35142 ft 441 kts 81°
2026-05-01 14:28 49.97412 -99.37592 35142 ft 441 kts 81°
2026-05-01 14:29 49.97149 -99.28001 35146 ft 443 kts 82°
2026-05-01 14:30 49.96648 -99.10500 35145 ft 443 kts 82°
2026-05-01 14:31 49.96172 -98.94381 35148 ft 455 kts 85°
2026-05-01 14:31 49.95864 -98.84543 35151 ft 461 kts 86°
2026-05-01 14:32 49.95594 -98.76266 35168 ft 459 kts 86°
2026-05-01 14:32 49.95214 -98.64774 35194 ft 460 kts 86°
2026-05-01 14:33 49.94878 -98.54839 35202 ft 460 kts 86°
2026-05-01 14:33 49.94536 -98.44975 35202 ft 460 kts 86°
2026-05-01 14:34 49.94185 -98.35086 35202 ft 460 kts 86°
2026-05-01 14:34 49.93886 -98.26827 35204 ft 461 kts 87°
2026-05-01 14:35 49.93455 -98.15220 35203 ft 461 kts 87°
2026-05-01 14:35 49.93079 -98.05341 35203 ft 461 kts 87°
2026-05-01 14:36 49.92690 -97.95365 35203 ft 461 kts 87°
2026-05-01 14:36 49.92297 -97.85474 35203 ft 462 kts 87°
2026-05-01 14:37 49.91961 -97.77188 35203 ft 462 kts 87°
2026-05-01 14:37 49.91942 -97.65670 35203 ft 458 kts 83°
2026-05-01 14:38 49.91978 -97.55818 35202 ft 458 kts 83°
2026-05-01 14:38 49.91997 -97.47578 35202 ft 458 kts 83°
2026-05-01 14:39 49.92012 -97.36076 35202 ft 458 kts 83°
2026-05-01 14:39 49.92016 -97.26208 35204 ft 460 kts 84°
2026-05-01 14:40 49.92010 -97.16331 35203 ft 460 kts 84°
2026-05-01 14:40 49.91999 -97.06390 35205 ft 465 kts 85°
2026-05-01 14:41 49.91981 -96.98016 35205 ft 467 kts 86°
2026-05-01 14:41 49.91943 -96.86292 35205 ft 467 kts 86°
2026-05-01 14:42 49.91900 -96.76184 35205 ft 467 kts 86°
2026-05-01 14:42 49.91851 -96.66135 35205 ft 467 kts 86°
2026-05-01 14:43 49.91793 -96.56108 35205 ft 467 kts 86°
2026-05-01 14:43 49.91725 -96.46021 35205 ft 467 kts 86°
2026-05-01 14:44 49.91650 -96.35991 35205 ft 467 kts 86°
2026-05-01 14:44 49.91522 -96.20892 35205 ft 468 kts 87°
2026-05-01 14:45 49.91372 -96.05742 35206 ft 468 kts 87°
2026-05-01 14:46 49.91262 -95.95716 35205 ft 468 kts 87°
2026-05-01 14:46 49.91080 -95.80602 35205 ft 468 kts 87°
2026-05-01 14:47 49.90948 -95.70542 35208 ft 468 kts 87°
2026-05-01 14:48 49.90733 -95.55444 35225 ft 467 kts 87°
2026-05-01 14:48 49.90499 -95.40320 35230 ft 467 kts 87°
2026-05-01 14:49 49.90157 -95.20186 35217 ft 468 kts 88°
2026-05-01 14:50 49.89779 -95.00041 35178 ft 468 kts 88°
2026-05-01 14:51 49.89472 -94.84824 35179 ft 474 kts 89°
2026-05-01 14:52 49.89140 -94.69495 35179 ft 475 kts 89°
2026-05-01 14:53 49.88788 -94.54153 35180 ft 475 kts 89°
2026-05-01 14:53 49.88542 -94.43937 35180 ft 475 kts 89°
2026-05-01 14:54 49.88287 -94.33709 35180 ft 475 kts 90°
2026-05-01 14:54 49.88025 -94.23518 35179 ft 476 kts 90°
2026-05-01 14:55 49.87750 -94.13238 35179 ft 476 kts 90°
2026-05-01 14:55 49.87471 -94.03089 35180 ft 475 kts 90°
2026-05-01 14:56 49.87179 -93.92825 35180 ft 475 kts 90°
2026-05-01 14:56 49.86880 -93.82642 35179 ft 474 kts 90°
2026-05-01 14:57 49.86572 -93.72434 35180 ft 474 kts 90°
2026-05-01 14:57 49.86095 -93.57172 35180 ft 474 kts 90°
2026-05-01 14:58 49.85765 -93.46993 35176 ft 475 kts 90°
2026-05-01 14:58 49.85424 -93.36762 35171 ft 475 kts 90°
2026-05-01 14:59 49.85077 -93.26569 35164 ft 475 kts 90°
2026-05-01 14:59 49.84719 -93.16379 35157 ft 475 kts 90°
2026-05-01 15:00 49.84167 -93.01073 35153 ft 476 kts 90°
2026-05-01 15:01 49.83785 -92.90822 35153 ft 477 kts 91°
2026-05-01 15:01 49.83395 -92.80601 35153 ft 477 kts 91°
2026-05-01 15:02 49.82719 -92.70412 35155 ft 478 kts 95°
2026-05-01 15:02 49.81784 -92.60242 35153 ft 478 kts 96°
2026-05-01 15:03 49.80816 -92.50078 35154 ft 478 kts 96°
2026-05-01 15:03 49.79827 -92.39877 35154 ft 478 kts 96°
2026-05-01 15:04 49.78835 -92.29768 35153 ft 479 kts 96°
2026-05-01 15:04 49.77822 -92.19556 35153 ft 479 kts 96°
2026-05-01 15:05 49.76807 -92.09422 35153 ft 479 kts 96°
2026-05-01 15:05 49.75781 -91.99274 35154 ft 479 kts 96°
2026-05-01 15:06 49.74745 -91.89117 35154 ft 479 kts 96°
2026-05-01 15:06 49.73700 -91.78960 35154 ft 478 kts 96°
2026-05-01 15:07 49.72649 -91.68844 35154 ft 478 kts 96°
2026-05-01 15:07 49.71586 -91.58696 35154 ft 478 kts 96°
2026-05-01 15:08 49.70520 -91.48612 35154 ft 478 kts 96°
2026-05-01 15:08 49.69447 -91.38539 35154 ft 478 kts 96°
2026-05-01 15:09 49.68359 -91.28418 35154 ft 478 kts 97°
2026-05-01 15:09 49.67263 -91.18310 35154 ft 477 kts 97°
2026-05-01 15:10 49.66198 -91.08579 35154 ft 475 kts 97°
2026-05-01 15:10 49.64538 -90.93552 35154 ft 470 kts 96°
2026-05-01 15:11 49.62877 -90.78683 35180 ft 470 kts 96°
2026-05-01 15:12 49.61758 -90.68780 35200 ft 470 kts 96°
2026-05-01 15:12 49.60070 -90.54008 36278 ft 451 kts 96°
2026-05-01 15:13 49.58462 -90.40051 37211 ft 444 kts 96°
2026-05-01 15:14 49.57363 -90.30603 37211 ft 451 kts 97°
2026-05-01 15:14 49.55669 -90.16190 37211 ft 461 kts 97°
2026-05-01 15:15 49.53331 -89.96564 37209 ft 471 kts 97°
2026-05-01 15:16 49.50937 -89.76774 37209 ft 470 kts 97°
2026-05-01 15:18 49.47909 -89.52157 37209 ft 470 kts 97°
2026-05-01 15:19 49.45446 -89.32456 37209 ft 470 kts 98°
2026-05-01 15:19 49.43579 -89.17716 37201 ft 470 kts 98°
2026-05-01 15:20 49.41691 -89.02962 37184 ft 470 kts 98°
2026-05-01 15:21 49.40417 -88.93092 37183 ft 471 kts 98°
2026-05-01 15:21 49.39145 -88.83312 37182 ft 471 kts 98°
2026-05-01 15:22 49.37207 -88.68542 37182 ft 471 kts 98°
2026-05-01 15:22 49.35909 -88.58736 37183 ft 471 kts 98°
2026-05-01 15:23 49.34593 -88.48862 37185 ft 471 kts 98°
2026-05-01 15:23 49.33276 -88.39048 37188 ft 471 kts 98°
2026-05-01 15:24 49.31943 -88.29187 37190 ft 472 kts 99°
2026-05-01 15:24 49.30611 -88.19386 37188 ft 473 kts 99°
2026-05-01 15:25 49.29257 -88.09503 37186 ft 472 kts 99°
2026-05-01 15:25 49.27911 -87.99739 37184 ft 473 kts 99°
2026-05-01 15:26 49.26551 -87.89948 37183 ft 473 kts 99°
2026-05-01 15:26 49.25180 -87.80131 37178 ft 473 kts 99°
2026-05-01 15:27 49.23795 -87.70286 37134 ft 473 kts 99°
2026-05-01 15:28 49.21710 -87.55581 37075 ft 474 kts 99°
2026-05-01 15:28 49.20299 -87.45709 37075 ft 474 kts 99°
2026-05-01 15:29 49.18182 -87.31022 37076 ft 474 kts 100°
2026-05-01 15:30 49.15561 -87.13031 37076 ft 474 kts 100°
2026-05-01 15:31 49.10960 -86.81945 37076 ft 475 kts 100°
2026-05-01 15:32 49.08023 -86.62421 37077 ft 471 kts 100°
2026-05-01 15:34 49.03561 -86.33207 37076 ft 474 kts 101°